Skip Page Navigation
NASA JPL Caltech
NASA Logo - Jet Propulsion Laboratory + View the NASA Portal
+ Near-Earth Object (NEO) Program
Search JPL
JPL Home Earth Solar System Stars & Galaxies Technology
JPL Solar System Dynamics
BODIES ORBITS EPHEMERIDES TOOLS PHYSICAL DATA DISCOVERY FAQ SITE MAP
JPL Small-Body Database Browser
Search: [ help ]  
133296 Federicotosi (2003 SE36)
Classification: Main-belt Asteroid          SPK-ID: 2133296
Ephemeris | Orbit Diagram | Orbital Elements | Physical Parameters | Discovery Circumstances ]

[ show orbit diagram ]
Orbital Elements at Epoch 2456400.5 (2013-Apr-18.0) TDB
Reference: MPO251216 (heliocentric ecliptic J2000)
 Element Value Uncertainty (1-sigma)   Units 
e 0.1494203 n/a  
a 2.7244015 n/a AU
q 2.3173206 n/a AU
i 25.04026 n/a deg
node 22.68088 n/a deg
peri 261.73021 n/a deg
M 130.12296 n/a deg
tp 2455806.8143683
(2011-Sep-02.31436830)
n/a JED
period 1642.4989673
4.50
n/a
n/a
d
yr
n 0.21917822 n/a deg/d
Q 3.1314824 n/a AU
  Orbit Determination Parameters
   # obs. used (total)      289  
   first obs. used      1997-??-??  
   last obs. used      2012-11-13  
   # oppositions      8  
   planetary ephem.      DE403  
   condition code      0  
   fit RMS      0.57  
   data source      MPC:mpu  
   producer      MPCLINUX  

Additional Information
 T_jup = 3.206 

Ephemeris | Orbit Diagram | Orbital Elements | Physical Parameters | Discovery Circumstances ]

Physical Parameter Table
Parameter Symbol Value Units Sigma Reference Notes
absolute magnitude H 14.6 mag n/a MPO251216  

133296 Federicotosi           Discovered 2003 Sept. 19 by the Campo Imperatore Near-Earth-Object Survey.
Federico Tosi (b. 1974) has studied Jupiter's system using imaging spectroscopy data, and is currently at the University of Rome "La Sapienza", working on remote sensing, with an emphasis on the use of Cassini orbiter data on Saturnian satellites.
NOTE: some special characters may not display properly (any characters within {} are an attempt to place the proper accent above a character)
Reference: 20070402/MPCPages.arcLast Updated: 2007-07-05
Ephemeris | Orbit Diagram | Orbital Elements | Physical Parameters | Discovery Circumstances ]
ABOUT SSD CREDITS/AWARDS PRIVACY/COPYRIGHT GLOSSARY LINKS
FirstGov 2013-May-19 00:23 UT
(server date/time)  
NASA Home Page
Site Manager:   Donald K. Yeomans
Webmaster  Alan B. Chamberlin